TimeCST,TemperatureF,Dew PointF,Humidity,Sea Level PressureIn,VisibilityMPH,Wind Direction,Wind SpeedMPH,Gust SpeedMPH,PrecipitationIn,Events,Conditions,WindDirDegrees,DateUTC
12:00 AM,-41,-47,56,30.04,15,East,2.3,,,Snow,Snow,80,2013-02-10 06:00:00
12:00 AM,-41.8,-47.2,74,30.04,15.0,East,2.3,-,N/A,,Clear,80,2013-02-10 06:00:00
1:00 AM,-41.8,-47.2,74,30.05,15.0,Calm,Calm,-,N/A,,Clear,0,2013-02-10 07:00:00
2:00 AM,-40.0,-47.2,67,30.06,15.0,ESE,3.5,-,N/A,,Clear,120,2013-02-10 08:00:00
3:00 AM,-40.0,-47.2,67,30.08,15.0,East,2.3,-,N/A,,Clear,80,2013-02-10 09:00:00
4:00 AM,-40.0,-47.2,67,30.08,15.0,East,3.5,-,N/A,,Clear,100,2013-02-10 10:00:00
5:00 AM,-41.8,-49.0,67,30.09,15.0,East,2.3,-,N/A,,Clear,90,2013-02-10 11:00:00
6:00 AM,-42,-48,52,30.08,15,Calm,Calm,,,Snow,Snow,,2013-02-10 12:00:00
6:00 AM,-41.8,-49.0,67,30.08,15.0,Calm,Calm,-,N/A,,Clear,0,2013-02-10 12:00:00
7:00 AM,-41.8,-47.2,74,30.08,15.0,Calm,Calm,-,N/A,,Partly Cloudy,0,2013-02-10 13:00:00
8:00 AM,-41.8,-49.0,67,30.07,15.0,Calm,Calm,-,N/A,,Partly Cloudy,0,2013-02-10 14:00:00
9:00 AM,-41.8,-49.0,67,30.06,15.0,Calm,Calm,-,N/A,,Partly Cloudy,0,2013-02-10 15:00:00
10:00 AM,-41.8,-47.2,74,30.06,15.0,Calm,Calm,-,N/A,,Partly Cloudy,0,2013-02-10 16:00:00
11:00 AM,-41.8,-47.2,74,30.04,15.0,Calm,Calm,-,N/A,,Scattered Clouds,0,2013-02-10 17:00:00
12:00 PM,-42,-48,53,30.03,15,Calm,Calm,,,Snow,Snow,,2013-02-10 18:00:00
12:00 PM,-41.8,-47.2,74,30.03,15.0,Calm,Calm,-,N/A,,Scattered Clouds,0,2013-02-10 18:00:00
1:00 PM,-41.8,-49.0,67,30.02,15.0,Calm,Calm,-,N/A,,Scattered Clouds,0,2013-02-10 19:00:00
2:00 PM,-41.8,-49.0,67,30.02,15.0,Calm,Calm,-,N/A,,Scattered Clouds,0,2013-02-10 20:00:00
3:00 PM,-41.8,-47.2,74,30.03,15.0,Calm,Calm,-,N/A,,Partly Cloudy,0,2013-02-10 21:00:00
4:00 PM,-41.8,-47.2,74,30.03,15.0,Calm,Calm,-,N/A,,Partly Cloudy,0,2013-02-10 22:00:00
5:00 PM,-40.0,-47.2,67,30.04,15.0,Calm,Calm,-,N/A,,Partly Cloudy,0,2013-02-10 23:00:00
6:00 PM,-39,-46,52,30.06,15,Calm,Calm,,,Snow,Snow,,2013-02-11 00:00:00
6:00 PM,-38.2,-45.4,67,30.06,15.0,Calm,Calm,-,N/A,,Clear,0,2013-02-11 00:00:00
7:00 PM,-36.4,-43.6,67,30.06,15.0,Calm,Calm,-,N/A,,Clear,0,2013-02-11 01:00:00
8:00 PM,-36.4,-43.6,67,30.06,15.0,Calm,Calm,-,N/A,,Clear,0,2013-02-11 02:00:00
9:00 PM,-36.4,-43.6,67,30.07,15.0,Calm,Calm,-,N/A,,Clear,0,2013-02-11 03:00:00